Content
SEND FEEDBACK

Daily
Averages
Monthly
Summary
Switzerland

VERSOIX, SWITZERLAND


Home > Europe > Switzerland
Elevation: 1365 feet     Latitude: 46 12N     Longitude: 006 12E

WEATHER
 
SELECT A DAY
Number of Records: 317,262;   Date Range: 7/1/96 - 12/19/14
 
SHARE

PRINT THIS DATA

[ ← Previous Day ]
WEATHER ALMANAC - APRIL 28, 2013
[ Next Day → ]
[ °C ]   °F
Weather ElementAverageHighLow
Temperature43.5 °F50 °F (3:50 pm)35.6 °F (6:50 am)
Dewpoint37.7 °F44.6 °F (10:50 pm)34 °F (10:00 am)
Humidity78.5 %100 % (6:50 am)58 % (4:00 pm)
Barometer29.93 in30.01 in (11:20 pm)29.83 in (12:20 am)
Wind Speed3.8 mph8.1 mph (12:50 am)
Weather ElementAverage
Visibility6.9 mi
Wind DirectionESE (116.7 °)

Weather ElementTotal
Precipitation---
Heating Degree Days22.2 (Base 65)
Averaged from 66 records on April 28, 2013
WEATHER CONDITIONS BREAKOUT
WIND DIRECTION BREAKOUT
WEATHER BY HOUR - APRIL 28, 2013
[ °C ]   °F
Local TimeTemperatureDewpointHumidityBarometerVisibilityWind DirectionWind SpeedGust SpeedPrecipitationEventsConditions
12:20 AM37.4 °F35.6 °F93 %29.83 in6.2 miWSW (240°)6.9 mphRainLight Rain
12:50 AM37.4 °F35.6 °F93 %29.83 in6.2 miSW (230°)8.1 mphLight Drizzle
1:00 AM38.0 °F35.0 °F84 %29.89 inSW (230°)4.6 mph
1:20 AM37.4 °F35.6 °F93 %29.83 in6.2 miSW (220°)6.9 mphMostly Cloudy
1:50 AM37.4 °F35.6 °F93 %29.83 in6.2 miSW (230°)4.6 mphMostly Cloudy
2:00 AM38.0 °F35.0 °F86 %29.90 in19.0 miWSW (240°)5.8 mphRainLight Rain
2:20 AM37.4 °F35.6 °F93 %29.83 in6.2 miSW (230°)5.8 mphOvercast
2:50 AM37.4 °F35.6 °F93 %29.83 in6.2 miWSW (240°)3.5 mphMostly Cloudy
3:00 AM38.0 °F35.0 °F84 %29.89 inWSW (240°)3.5 mph
3:50 AM37.4 °F35.6 °F93 %29.83 in6.2 miSW (230°)5.8 mphOvercast
4:00 AM38.0 °F35.0 °F86 %29.90 inWSW (240°)5.8 mph
4:20 AM37.4 °F35.6 °F93 %29.86 in6.2 miWSW (240°)4.6 mphOvercast
4:50 AM37.4 °F35.6 °F93 %29.86 in6.2 miWSW (240°)3.5 mphOvercast
5:20 AM37.4 °F35.6 °F93 %29.86 in6.2 miSW (230°)3.5 mphOvercast
5:50 AM37.4 °F35.6 °F93 %29.86 in6.2 miVariable2.3 mphMostly Cloudy
6:00 AM38.0 °F35.0 °F85 %29.92 inWSW (250°)2.3 mph
6:20 AM37.4 °F35.6 °F93 %29.86 in5.6 miVariable3.5 mphMostly Cloudy
6:50 AM35.6 °F35.6 °F100 %29.89 in6.2 miVariable1.2 mphMostly Cloudy
7:00 AM38.0 °F35.0 °F85 %29.95 inWest (280°)2.3 mph
7:20 AM37.4 °F35.6 °F93 %29.89 in6.2 miWest (260°)3.5 mphMostly Cloudy
7:50 AM37.4 °F35.6 °F93 %29.92 in6.2 miVariable2.3 mphScattered Clouds
8:00 AM38.0 °F35.0 °F85 %29.96 in11.0 miSW (230°)3.5 mphMostly Cloudy
8:20 AM39.2 °F35.6 °F87 %29.92 in6.2 miSW (230°)4.6 mphMostly Cloudy
8:50 AM41.0 °F37.4 °F87 %29.95 in6.2 miSW (230°)5.8 mphMostly Cloudy
9:00 AM40.0 °F35.0 °F77 %29.98 inWSW (240°)3.5 mph
9:20 AM41.0 °F35.6 °F81 %29.95 in6.2 miVariable3.5 mphMostly Cloudy
9:50 AM41.0 °F35.6 °F81 %29.95 in6.2 miSouth (170°)3.5 mphMostly Cloudy
10:00 AM41.0 °F34.0 °F68 %29.99 inWNW (300°)2.3 mph
10:20 AM41.0 °F35.6 °F81 %29.95 in6.2 miVariable1.2 mphMostly Cloudy
10:50 AM42.8 °F35.6 °F76 %29.95 in6.2 miVariable2.3 mphMostly Cloudy
11:20 AM44.6 °F35.6 °F71 %29.95 in6.2 miVariable2.3 mphMostly Cloudy
11:50 AM44.6 °F37.4 °F76 %29.98 in6.2 miVariable1.2 mphMostly Cloudy
12:00 PM45.0 °F36.0 °F60 %30.00 inNorth (350°)3.5 mph
12:20 PM46.4 °F35.6 °F66 %29.98 in6.2 miVariable2.3 mphMostly Cloudy
12:50 PM44.6 °F37.4 °F76 %29.98 in6.2 miEast (100°)6.9 mphMostly Cloudy
1:00 PM44.0 °F35.0 °F60 %30.00 inENE (60°)5.8 mph
1:20 PM46.4 °F37.4 °F71 %29.98 in6.2 miVariable2.3 mphMostly Cloudy
1:50 PM46.4 °F37.4 °F71 %29.95 in6.2 miEast (80°)5.8 mphMostly Cloudy
2:00 PM46.0 °F38.0 °F63 %29.99 in14.0 miEast (80°)5.8 mphPartly Cloudy
2:20 PM46.4 °F39.2 °F76 %29.95 in6.2 miNE (40°)3.5 mphMostly Cloudy
2:50 PM48.2 °F41.0 °F76 %29.95 in6.2 miNorth (10°)4.6 mphMostly Cloudy
3:00 PM47.0 °F38.0 °F60 %29.98 inNE (50°)5.8 mph
3:20 PM48.2 °F39.2 °F71 %29.95 in6.2 miENE (70°)4.6 mphMostly Cloudy
3:50 PM50.0 °F39.2 °F66 %29.95 in6.2 miNNE (20°)5.8 mphMostly Cloudy
4:00 PM48.0 °F38.0 °F58 %29.98 inNorth (10°)4.6 mph
4:20 PM50.0 °F39.2 °F66 %29.95 in6.2 miVariable2.3 mphRainLight Rain
4:50 PM48.2 °F39.2 °F71 %29.95 in6.2 miEast (90°)4.6 mphMostly Cloudy
5:20 PM48.2 °F39.2 °F71 %29.95 in6.2 miENE (70°)5.8 mphMostly Cloudy
5:50 PM48.2 °F41.0 °F76 %29.95 in6.2 miENE (70°)6.9 mphMostly Cloudy
6:00 PM49.0 °F39.0 °F59 %29.97 inENE (60°)5.8 mph
6:20 PM50.0 °F39.2 °F66 %29.95 in6.2 miNNE (30°)4.6 mphMostly Cloudy
6:50 PM50.0 °F41.0 °F71 %29.95 in6.2 miVariable2.3 mphMostly Cloudy
7:00 PM50.0 °F40.0 °F58 %29.97 inNorth (10°)4.6 mph
7:20 PM50.0 °F39.2 °F66 %29.95 in6.2 miNorth (10°)3.5 mphMostly Cloudy
7:50 PM50.0 °F41.0 °F71 %29.95 in6.2 miVariable2.3 mphMostly Cloudy
8:00 PM49.0 °F40.0 °F61 %29.96 in16.0 miNorth (10°)3.5 mphPartly Cloudy
8:20 PM48.2 °F41.0 °F76 %29.95 in6.2 miCalmMostly Cloudy
8:50 PM48.2 °F41.0 °F76 %29.95 in6.2 miVariable1.2 mphMostly Cloudy
9:00 PM49.0 °F41.0 °F66 %29.97 inNorth2.3 mph
9:20 PM48.2 °F41.0 °F76 %29.95 in6.2 miVariable1.2 mphMostly Cloudy
9:50 PM48.2 °F42.8 °F82 %29.98 in6.2 miVariable2.3 mphMostly Cloudy
10:00 PM49.0 °F42.0 °F69 %29.99 inWest (280°)3.5 mph
10:20 PM48.2 °F42.8 °F82 %29.98 in6.2 miSW (230°)3.5 mphMostly Cloudy
10:50 PM48.2 °F44.6 °F87 %29.98 in6.2 miCalmMostly Cloudy
11:20 PM48.2 °F44.6 °F87 %30.01 in6.2 miWest (260°)3.5 mphRainLight Rain
11:50 PM48.2 °F44.6 °F87 %30.01 in6.2 miWSW (240°)3.5 mphRainLight Rain
Hourly data recorded from LSGG, located miles away from Versoix, Switzerland







STORIES FROM OUR PARTNERS